Regional Weather Roundup
Issued by NWS

Home | Current Version | Previous Version | Graphics & Text | Print | Product List | Glossary On
Versions: 1 2 3 4 5 6 7 8 9 10 11 12 13 14 15 16 17 18 19 20 21 22 23 24 25 26 27 28 29 30 31 32 33 34 35 36 37 38 39 40 41 42 43 44 45 46 47 48 49 50
000
ASUS43 KMKX 201510
RWRWI

WISCONSIN REGIONAL WEATHER ROUNDUP
NATIONAL WEATHER SERVICE MILWAUKEE/SULLIVAN WI
900 AM CST MON NOV 20 2017

NOTE: "FAIR" INDICATES FEW OR NO CLOUDS BELOW 12,000 FEET WITH NO
SIGNIFICANT WEATHER AND/OR OBSTRUCTIONS TO VISIBILITY.

WIZ001-002-006>008-014>016-023>028-201600-
NORTHWEST WISCONSIN

CITY           SKY/WX    TMP DP  RH WIND       PRES   REMARKS
SUPERIOR ARPT  CLOUDY    23  22  95 CALM      29.62F
ASHLAND        CLOUDY    25  21  85 CALM      29.63F
HAYWARD        CLOUDY    28  24  85 S5        29.62F WCI  23
SIREN          CLOUDY    32  28  84 SE6       29.60F WCI  26
CUMBERLAND     CLOUDY    28  27  93 CALM      29.64F
RICE LAKE      CLOUDY    28  27  93 SE5       29.66F WCI  23
CHETEK         CLOUDY    28  26  91 E7        29.66F WCI  21
LADYSMITH      CLOUDY    30  27  88 SE5       29.68F WCI  25
EAU CLAIRE     CLOUDY    32  27  81 S8        29.67F WCI  25
MENOMONIE      CLOUDY    31  28  89 E3        29.67F
NEW RICHMOND   CLOUDY    33  27  79 S8        29.62F WCI  26
OSCEOLA        CLOUDY    33  28  81 S9        29.65F WCI  25
$$

WIZ003>005-009-010-017-018-201600-
NORTH CENTRAL WISCONSIN

CITY           SKY/WX    TMP DP  RH WIND       PRES   REMARKS
MANITOWISH WTR CLOUDY    25  25 100 S3        29.64F
ARBOR VITAE    CLOUDY    29  27  92 S6        29.66F WCI  23
WOODRUFF       CLOUDY    29  27  92 S6        29.66F WCI  23
RHINELANDER    CLOUDY     1  32 100 SW9       29.67F WCI -14
EAGLE RIVER    CLOUDY    26  25  97 CALM      29.65F
LAND O LAKES   CLOUDY    24  23  96 SW3       29.67F
PHILLIPS       CLOUDY    29  26  90 S7        29.66F WCI  22
TOMAHAWK       CLOUDY    26  24  93 CALM      29.69F
MEDFORD        CLOUDY    29  26  88 S7        29.68F WCI  22
MERRILL        CLOUDY    26  24  93 CALM      29.71F
$$

WIZ029-030-035-036-043>047-201600-
CENTRAL WISCONSIN

CITY           SKY/WX    TMP DP  RH WIND       PRES   REMARKS
WAUSAU         CLOUDY    28  25  88 S5        29.71F WCI  23
MOSINEE        PTSUNNY   28  27  93 S5        29.73F WCI  23
MARSHFIELD     CLOUDY    30  25  81 S8        29.69F WCI  22
STEVENS POINT  CLOUDY    31  26  84 S8        29.74F WCI  23
WAUPACA        CLOUDY    33  27  79 S5        29.77F WCI  29
WAUTOMA        CLOUDY    30  27  88 S3        29.77F
WISC RAPIDS    CLOUDY    32  27  81 S5        29.75F WCI  27
CAMP DOUGLAS   PTSUNNY   36  28  75 S7        29.76F WCI  30
$$

WIZ011>013-019>022-031-037>040-048>050-201600-
NORTHEAST WISCONSIN

CITY           SKY/WX    TMP DP  RH WIND       PRES   REMARKS
ANTIGO         CLOUDY    28  25  89 SW7       29.71F WCI  21
SHAWANO        CLOUDY    32  26  78 SW3       29.76F
OCONTO         CLOUDY    30  25  81 CALM      29.77F
STURGEON BAY   MOSUNNY   33  26  75 S6        29.78F WCI  28
GREEN BAY      CLOUDY    34  29  82 SW8       29.78F WCI  27
MANITOWOC      NOT AVBL
APPLETON       MOSUNNY   32  25  74 SW8       29.76F WCI  25
CLINTONVILLE   CLOUDY    30  25  80 S5        29.76F WCI  25
OSHKOSH        CLOUDY    33  26  75 S13       29.78F WCI  24
$$

WIZ032>034-041-042-053>061-201600-
SOUTHWEST WISCONSIN

CITY           SKY/WX    TMP DP  RH WIND       PRES   REMARKS
LA CROSSE      CLOUDY    38  28  67 S9        29.74F WCI  31
SPARTA         CLOUDY    37  29  73 S5        29.74F WCI  33
VIROQUA        CLOUDY    36  30  80 S10       29.75S WCI  28
BOSCOBEL       CLOUDY    37  30  75 CALM      29.79F
PRAIRIE DU CHI CLOUDY    39  27  63 S7        29.78F WCI  34
PLATTEVILLE    CLOUDY    37  32  84 S13       29.81F WCI  28
$$

WIZ056-057-062-063-064-067-068-201600-
SOUTH CENTRAL WISCONSIN

CITY           SKY/WX    TMP DP  RH WIND       PRES   REMARKS
REEDSBURG      SUNNY     35  28  74 S6        29.78F WCI  30
BARABOO/DELLS  SUNNY     38  27  65 SW8       29.78S WCI  32
LONE ROCK      SUNNY     37  30  75 S5        29.80F WCI  33
MINERAL POINT  CLOUDY    36  32  87 S10       29.79F WCI  28
MADISON        PTSUNNY   35  27  72 S9        29.80F WCI  28
MIDDLETON      SUNNY     38  28  68 SW9G17    29.81S WCI  31
WATERTOWN      CLOUDY    36  29  77 SW12G17   29.82F WCI  27
MONROE         CLOUDY    34  28  80 S15       29.81F WCI  24
JANESVILLE     MOSUNNY   37  28  70 SW14      29.85F WCI  29
$$

WIZ051-052-058>065-066-070>072-201600-
SOUTHEAST WISCONSIN

CITY           SKY/WX    TMP DP  RH WIND       PRES   REMARKS
MILWAUKEE      CLOUDY    38  27  64 SW14      29.84F WCI  30
WAUKESHA       SUNNY     34  25  69 S10       29.84F WCI  26
MILWAUKEE/TIMM SUNNY     36  25  64 SW13      29.85F WCI  27
RACINE         CLOUDY    39  27  62 SW15G23   29.86F WCI  31
BURLINGTON     CLOUDY    40  33  75 SW14      29.85F WCI  32
KENOSHA        CLOUDY    39  26  59 SW14G25   29.86F WCI  31
FOND DU LAC    CLOUDY    35  25  66 S13       29.80F WCI  26
SHEBOYGAN      CLOUDY    37  28  70 SW12      29.81F WCI  29
WEST BEND      CLOUDY    37  27  65 SW6       29.82S WCI  33
JUNEAU         SUNNY     33  27  79 S12       29.83S WCI  24
$$

LSZ147-162-201600-
LAKE SUPERIOR

STATION/POSITION TIME  TEMP    WIND        PRES    WAVE
                       AIR SEA DIR/SP/G            HT/PER
                 (UTC) (F)     (DEG/KT/KT) (MB)    (FT/S)
DEVILS ISLAND    1500   31     170/  4/  6 1003.6F
SAXON HARBOR     1440   30      CALM  /  3 1003.7F
$$

LMZ867-665-643>646-201600-
LAKE MICHIGAN

STATION/POSITION TIME  TEMP    WIND        PRES    WAVE
                       AIR SEA DIR/SP/G            HT/PER
                 (UTC) (F)     (DEG/KT/KT) (MB)    (FT/S)
N MID LAKE BUOY  1450   38 48  210/ 10/ 12 1009.9F   2/ 5
NORTHPORT PIER   1440   35     160/  4/  5 1008.8S
KEWAUNEE LAKESHO 1448   35     250/  2/  7 1008.0F
SHEBOYGAN LAKESH 1500   37     240/ 15/ 17 1009.7F
PORT WASHINGTON  1440   38     250/ 11/ 16 1010.8F
MILWAUKEE LAKESH 1450   37     230/ 17/ 19   N/A
S MID LAKE BUOY  1350   42 49  250/ 21/ 25 1012.8F   7/ 6
KENOSHA   LAKESH 1500   40     230/ 15/ 22 1011.2
$$

TC  - TEMPERATURE IN CELSIUS
VSB - VISIBILITY IN STATUTE MILES
WCI - WIND CHILL INDEX
HX  - HEAT INDEX





USA.gov is the U.S. government's official web portal to all federal, state and local government web resources and services.